Voltar ao catálogo

USA 370

AtivoMilitarVLEO
NORAD 59830·PAYLOAD·🇺🇸 United States

Lançado May 22, 2024 de Vandenberg Space Force Base

Loading…

Próximas Passagens (próximas 24 horas)

TLE

ObsoletoSource: Mike McCants

Época: Aug 21, 2026, 21:28 UTC

1 59830U 24096S   26233.89513297 0.00000000  00000-0  00000-0 0    09
2 59830  70.0210 161.9059 0003032 265.0843  94.9157 14.96712533    00

Acompanhe USA 370 em tempo real com AllMySat

Download on the App Store